LOCATION_NAME,SAMPLE COLLECTION TIME,DOSE EQUIVALENT RATE (nSv/h),GAMMA COUNT RATE R02 (CPM),GAMMA COUNT RATE R03 (CPM),GAMMA COUNT RATE R04 (CPM),GAMMA COUNT RATE R05 (CPM),GAMMA COUNT RATE R06 (CPM),GAMMA COUNT RATE R07 (CPM),GAMMA COUNT RATE R08 (CPM),GAMMA COUNT RATE R09 (CPM),STATUS
AZ: TUCSON,01/01/2012 00:34:00,,3110.00,1760.00,480.00,257.00,156.00,182.00,120.00,40.00,APPROVED
AZ: TUCSON,01/01/2012 01:34:00,,3145.00,1777.00,487.00,263.00,160.00,182.00,121.00,39.00,APPROVED
AZ: TUCSON,01/01/2012 02:34:00,,3245.00,1820.00,486.00,259.00,163.00,184.00,120.00,39.00,APPROVED
AZ: TUCSON,01/01/2012 03:34:00,,3325.00,1847.00,492.00,263.00,161.00,185.00,118.00,39.00,APPROVED
AZ: TUCSON,01/01/2012 04:35:00,,3454.00,1916.00,510.00,267.00,163.00,190.00,120.00,40.00,APPROVED
AZ: TUCSON,01/01/2012 05:35:00,,3622.00,2018.00,522.00,278.00,167.00,196.00,118.00,41.00,APPROVED
AZ: TUCSON,01/01/2012 06:35:00,,3714.00,2059.00,541.00,282.00,169.00,204.00,116.00,41.00,APPROVED
AZ: TUCSON,01/01/2012 07:35:00,,3753.00,2058.00,537.00,274.00,169.00,206.00,111.00,40.00,APPROVED
AZ: TUCSON,01/01/2012 08:35:00,,3795.00,2131.00,548.00,283.00,171.00,211.00,112.00,43.00,APPROVED
AZ: TUCSON,01/01/2012 09:36:00,,3884.00,2236.00,586.00,300.00,179.00,232.00,109.00,44.00,APPROVED
AZ: TUCSON,01/01/2012 10:36:00,,3927.00,2252.00,596.00,309.00,182.00,237.00,110.00,46.00,APPROVED
AZ: TUCSON,01/01/2012 11:36:00,,3929.00,2268.00,595.00,304.00,179.00,242.00,110.00,45.00,APPROVED
AZ: TUCSON,01/01/2012 12:36:00,,3973.00,2275.00,603.00,304.00,175.00,244.00,104.00,46.00,APPROVED
AZ: TUCSON,01/01/2012 13:37:00,,3900.00,2197.00,585.00,286.00,176.00,230.00,101.00,47.00,APPROVED
AZ: TUCSON,01/01/2012 14:37:00,,3850.00,2164.00,570.00,277.00,170.00,226.00,97.00,43.00,APPROVED
AZ: TUCSON,01/01/2012 15:37:00,,3788.00,2123.00,563.00,272.00,170.00,221.00,97.00,44.00,APPROVED
AZ: TUCSON,01/01/2012 16:37:00,,3592.00,2020.00,537.00,270.00,167.00,206.00,107.00,44.00,APPROVED
AZ: TUCSON,01/01/2012 17:38:00,,3280.00,1837.00,502.00,257.00,162.00,188.00,118.00,40.00,APPROVED
AZ: TUCSON,01/01/2012 18:38:00,,2925.00,1680.00,482.00,253.00,156.00,180.00,119.00,41.00,APPROVED
AZ: TUCSON,01/01/2012 19:38:00,,2734.00,1594.00,468.00,240.00,153.00,179.00,120.00,40.00,APPROVED
AZ: TUCSON,01/01/2012 20:38:00,,2760.00,1600.00,470.00,246.00,153.00,176.00,118.00,41.00,APPROVED
AZ: TUCSON,01/01/2012 21:39:00,,2859.00,1653.00,470.00,251.00,156.00,177.00,118.00,40.00,APPROVED
AZ: TUCSON,01/01/2012 22:39:00,,2849.00,1663.00,466.00,252.00,153.00,178.00,117.00,41.00,APPROVED
AZ: TUCSON,01/01/2012 23:39:00,,2908.00,1676.00,466.00,254.00,156.00,178.00,119.00,41.00,APPROVED
AZ: TUCSON,01/02/2012 00:39:00,,3060.00,1733.00,479.00,260.00,156.00,180.00,120.00,40.00,APPROVED
AZ: TUCSON,01/02/2012 01:40:00,,3074.00,1742.00,479.00,251.00,157.00,179.00,116.00,39.00,APPROVED
AZ: TUCSON,01/02/2012 02:40:00,,3102.00,1745.00,483.00,253.00,153.00,176.00,118.00,39.00,APPROVED
AZ: TUCSON,01/02/2012 03:40:00,,3197.00,1780.00,481.00,256.00,158.00,174.00,116.00,40.00,APPROVED
AZ: TUCSON,01/02/2012 04:40:00,,3311.00,1826.00,486.00,252.00,154.00,176.00,115.00,39.00,APPROVED
AZ: TUCSON,01/02/2012 05:41:00,,3371.00,1843.00,487.00,253.00,158.00,178.00,117.00,38.00,APPROVED
AZ: TUCSON,01/02/2012 06:41:00,,3424.00,1864.00,493.00,255.00,155.00,177.00,114.00,39.00,APPROVED
AZ: TUCSON,01/02/2012 07:41:00,,3436.00,1874.00,488.00,255.00,156.00,182.00,115.00,38.00,APPROVED
AZ: TUCSON,01/02/2012 08:41:00,,3468.00,1896.00,496.00,257.00,160.00,182.00,113.00,38.00,APPROVED
AZ: TUCSON,01/02/2012 09:42:00,,3459.00,1882.00,495.00,251.00,157.00,182.00,111.00,39.00,APPROVED
AZ: TUCSON,01/02/2012 10:42:00,,3517.00,1908.00,497.00,256.00,158.00,183.00,113.00,39.00,APPROVED
AZ: TUCSON,01/02/2012 11:42:00,,3520.00,1910.00,499.00,253.00,161.00,186.00,112.00,39.00,APPROVED
AZ: TUCSON,01/02/2012 12:42:00,,3525.00,1905.00,498.00,252.00,157.00,184.00,111.00,39.00,APPROVED
AZ: TUCSON,01/02/2012 13:43:00,,3512.00,1899.00,494.00,255.00,157.00,183.00,107.00,39.00,APPROVED
AZ: TUCSON,01/02/2012 14:43:00,,3509.00,1899.00,499.00,253.00,156.00,179.00,108.00,38.00,APPROVED
AZ: TUCSON,01/02/2012 15:43:00,,3488.00,1885.00,490.00,253.00,158.00,181.00,110.00,38.00,APPROVED
AZ: TUCSON,01/02/2012 16:43:00,,3337.00,1828.00,494.00,249.00,159.00,176.00,113.00,38.00,APPROVED
AZ: TUCSON,01/02/2012 17:44:00,,3102.00,1735.00,484.00,246.00,152.00,176.00,114.00,37.00,APPROVED
AZ: TUCSON,01/02/2012 18:44:00,,2888.00,1633.00,473.00,245.00,155.00,173.00,116.00,39.00,APPROVED
AZ: TUCSON,01/02/2012 19:44:00,,2814.00,1616.00,469.00,243.00,153.00,176.00,119.00,39.00,APPROVED
AZ: TUCSON,01/02/2012 20:44:00,,2756.00,1596.00,465.00,246.00,154.00,181.00,120.00,40.00,APPROVED
AZ: TUCSON,01/02/2012 21:45:00,,2845.00,1646.00,475.00,257.00,156.00,182.00,120.00,41.00,APPROVED
AZ: TUCSON,01/02/2012 22:45:00,,2950.00,1686.00,475.00,259.00,156.00,180.00,121.00,41.00,APPROVED
AZ: TUCSON,01/02/2012 23:45:00,,2986.00,1696.00,471.00,259.00,161.00,183.00,119.00,40.00,APPROVED
AZ: TUCSON,01/03/2012 00:45:00,,3087.00,1748.00,479.00,259.00,158.00,180.00,122.00,39.00,APPROVED
AZ: TUCSON,01/03/2012 01:45:00,,3101.00,1739.00,473.00,254.00,154.00,179.00,118.00,39.00,APPROVED
AZ: TUCSON,01/03/2012 02:46:00,,3135.00,1750.00,480.00,255.00,156.00,178.00,119.00,39.00,APPROVED
AZ: TUCSON,01/03/2012 03:46:00,,3216.00,1781.00,485.00,252.00,159.00,177.00,115.00,37.00,APPROVED
AZ: TUCSON,01/03/2012 04:46:00,,3332.00,1841.00,481.00,255.00,156.00,180.00,113.00,39.00,APPROVED
AZ: TUCSON,01/03/2012 05:46:00,,3382.00,1854.00,491.00,260.00,158.00,183.00,115.00,38.00,APPROVED
AZ: TUCSON,01/03/2012 06:47:00,,3428.00,1871.00,494.00,255.00,159.00,184.00,114.00,39.00,APPROVED
AZ: TUCSON,01/03/2012 07:47:00,,3460.00,1884.00,493.00,262.00,159.00,187.00,116.00,40.00,APPROVED
AZ: TUCSON,01/03/2012 08:47:00,,3510.00,1918.00,507.00,258.00,159.00,184.00,116.00,38.00,APPROVED
AZ: TUCSON,01/03/2012 09:47:00,,3549.00,1943.00,507.00,265.00,162.00,186.00,113.00,40.00,APPROVED
AZ: TUCSON,01/03/2012 10:48:00,,3564.00,1956.00,511.00,270.00,160.00,188.00,116.00,39.00,APPROVED
AZ: TUCSON,01/03/2012 11:48:00,,3581.00,1954.00,508.00,269.00,161.00,189.00,115.00,39.00,APPROVED
AZ: TUCSON,01/03/2012 12:48:00,,3609.00,1974.00,517.00,268.00,158.00,189.00,111.00,39.00,APPROVED
AZ: TUCSON,01/03/2012 13:48:00,,3659.00,2013.00,521.00,268.00,168.00,194.00,115.00,39.00,APPROVED
AZ: TUCSON,01/03/2012 14:49:00,,3664.00,2007.00,527.00,274.00,162.00,198.00,110.00,39.00,APPROVED
AZ: TUCSON,01/03/2012 15:49:00,,3645.00,2006.00,520.00,268.00,162.00,202.00,109.00,41.00,APPROVED
AZ: TUCSON,01/03/2012 16:49:00,,3523.00,1957.00,516.00,271.00,165.00,196.00,113.00,39.00,APPROVED
AZ: TUCSON,01/03/2012 17:49:00,,3265.00,1835.00,505.00,262.00,162.00,190.00,116.00,40.00,APPROVED
AZ: TUCSON,01/03/2012 18:50:00,,2993.00,1723.00,490.00,267.00,158.00,188.00,120.00,40.00,APPROVED
AZ: TUCSON,01/03/2012 19:50:00,,2849.00,1666.00,483.00,257.00,161.00,185.00,123.00,41.00,APPROVED
AZ: TUCSON,01/03/2012 20:50:00,,2927.00,1709.00,484.00,267.00,160.00,190.00,124.00,41.00,APPROVED
AZ: TUCSON,01/03/2012 21:40:00,,2942.00,1702.00,486.00,266.00,160.00,189.00,123.00,42.00,APPROVED
AZ: TUCSON,01/03/2012 22:55:00,,2875.00,1587.00,444.00,232.00,148.00,169.00,115.00,36.00,APPROVED
AZ: TUCSON,01/03/2012 23:55:00,,3039.00,1678.00,462.00,244.00,156.00,174.00,116.00,37.00,APPROVED
AZ: TUCSON,01/04/2012 00:55:00,,3070.00,1693.00,462.00,248.00,153.00,174.00,112.00,36.00,APPROVED
AZ: TUCSON,01/04/2012 01:56:00,,3132.00,1738.00,475.00,250.00,156.00,179.00,117.00,37.00,APPROVED
AZ: TUCSON,01/04/2012 02:56:00,,3243.00,1776.00,471.00,250.00,157.00,177.00,114.00,36.00,APPROVED
AZ: TUCSON,01/04/2012 03:56:00,,3319.00,1796.00,481.00,250.00,156.00,177.00,117.00,36.00,APPROVED
AZ: TUCSON,01/04/2012 04:56:00,,3445.00,1851.00,481.00,253.00,158.00,179.00,113.00,34.00,APPROVED
AZ: TUCSON,01/04/2012 05:57:00,,3559.00,1907.00,490.00,256.00,160.00,182.00,111.00,36.00,APPROVED
AZ: TUCSON,01/04/2012 06:57:00,,3620.00,1940.00,505.00,256.00,159.00,185.00,108.00,39.00,APPROVED
AZ: TUCSON,01/04/2012 07:57:00,,3686.00,1974.00,507.00,259.00,160.00,192.00,105.00,36.00,APPROVED
AZ: TUCSON,01/04/2012 08:57:00,,3789.00,2035.00,521.00,260.00,161.00,203.00,104.00,36.00,APPROVED
AZ: TUCSON,01/04/2012 09:58:00,,3865.00,2089.00,533.00,272.00,166.00,208.00,103.00,39.00,APPROVED
AZ: TUCSON,01/04/2012 10:58:00,,3888.00,2092.00,536.00,271.00,166.00,210.00,101.00,40.00,APPROVED
AZ: TUCSON,01/04/2012 11:58:00,,3933.00,2134.00,545.00,270.00,168.00,213.00,101.00,38.00,APPROVED
AZ: TUCSON,01/04/2012 12:58:00,,3904.00,2101.00,540.00,262.00,166.00,210.00,96.00,40.00,APPROVED
AZ: TUCSON,01/04/2012 13:58:00,,3914.00,2089.00,540.00,263.00,166.00,215.00,92.00,38.00,APPROVED
AZ: TUCSON,01/04/2012 14:59:00,,3910.00,2099.00,546.00,266.00,166.00,217.00,91.00,40.00,APPROVED
AZ: TUCSON,01/04/2012 15:59:00,,3933.00,2176.00,564.00,280.00,173.00,224.00,101.00,41.00,APPROVED
AZ: TUCSON,01/04/2012 16:59:00,,3689.00,2055.00,546.00,280.00,169.00,214.00,107.00,41.00,APPROVED
AZ: TUCSON,01/04/2012 17:59:00,,3365.00,1885.00,514.00,266.00,165.00,194.00,115.00,38.00,APPROVED
AZ: TUCSON,01/04/2012 19:00:00,,3038.00,1725.00,497.00,256.00,160.00,192.00,123.00,40.00,APPROVED
AZ: TUCSON,01/04/2012 20:00:00,,2833.00,1629.00,479.00,250.00,157.00,179.00,118.00,38.00,APPROVED
AZ: TUCSON,01/04/2012 21:00:00,,2719.00,1559.00,458.00,243.00,153.00,175.00,116.00,38.00,APPROVED
AZ: TUCSON,01/04/2012 22:00:00,,2717.00,1572.00,456.00,244.00,154.00,176.00,117.00,40.00,APPROVED
AZ: TUCSON,01/04/2012 23:01:00,,2750.00,1591.00,464.00,248.00,152.00,180.00,122.00,40.00,APPROVED
AZ: TUCSON,01/05/2012 00:01:00,,2722.00,1565.00,459.00,240.00,152.00,179.00,119.00,37.00,APPROVED
AZ: TUCSON,01/05/2012 01:01:00,,2864.00,1616.00,455.00,242.00,154.00,175.00,117.00,37.00,APPROVED
AZ: TUCSON,01/05/2012 02:01:00,,3045.00,1682.00,462.00,242.00,153.00,173.00,115.00,38.00,APPROVED
AZ: TUCSON,01/05/2012 03:02:00,,3153.00,1717.00,465.00,240.00,152.00,171.00,114.00,35.00,APPROVED
AZ: TUCSON,01/05/2012 19:06:00,,2849.00,1587.00,462.00,236.00,149.00,172.00,113.00,36.00,APPROVED
AZ: TUCSON,01/05/2012 20:06:00,,2695.00,1514.00,446.00,226.00,148.00,170.00,114.00,36.00,APPROVED
AZ: TUCSON,01/05/2012 21:43:00,,2651.00,1465.00,422.00,216.00,146.00,165.00,108.00,35.00,APPROVED
AZ: TUCSON,01/05/2012 22:43:00,,2794.00,1545.00,434.00,226.00,147.00,167.00,111.00,34.00,APPROVED
AZ: TUCSON,01/05/2012 23:43:00,,2882.00,1577.00,443.00,233.00,148.00,165.00,111.00,36.00,APPROVED
AZ: TUCSON,01/06/2012 00:43:00,,2968.00,1627.00,447.00,231.00,147.00,169.00,113.00,35.00,APPROVED
AZ: TUCSON,01/06/2012 01:44:00,,3026.00,1642.00,442.00,231.00,150.00,169.00,112.00,35.00,APPROVED
AZ: TUCSON,01/06/2012 02:44:00,,3133.00,1691.00,445.00,232.00,151.00,167.00,112.00,35.00,APPROVED
AZ: TUCSON,01/06/2012 03:44:00,,3328.00,1787.00,471.00,244.00,151.00,175.00,110.00,35.00,APPROVED
AZ: TUCSON,01/06/2012 04:44:00,,3495.00,1902.00,492.00,259.00,161.00,183.00,113.00,36.00,APPROVED
AZ: TUCSON,01/06/2012 05:45:00,,3597.00,1949.00,506.00,263.00,158.00,188.00,114.00,37.00,APPROVED
AZ: TUCSON,01/06/2012 06:45:00,,3726.00,2011.00,514.00,272.00,163.00,195.00,111.00,38.00,APPROVED
AZ: TUCSON,01/06/2012 07:45:00,,3865.00,2091.00,537.00,274.00,168.00,206.00,106.00,38.00,APPROVED
AZ: TUCSON,01/06/2012 08:45:00,,3916.00,2125.00,538.00,278.00,168.00,211.00,105.00,38.00,APPROVED
AZ: TUCSON,01/06/2012 09:46:00,,3943.00,2127.00,543.00,270.00,167.00,217.00,99.00,37.00,APPROVED
AZ: TUCSON,01/06/2012 10:46:00,,3940.00,2123.00,541.00,273.00,169.00,213.00,96.00,37.00,APPROVED
AZ: TUCSON,01/06/2012 11:46:00,,3882.00,2092.00,533.00,265.00,165.00,214.00,94.00,38.00,APPROVED
AZ: TUCSON,01/06/2012 12:46:00,,3875.00,2084.00,538.00,261.00,168.00,213.00,90.00,38.00,APPROVED
AZ: TUCSON,01/06/2012 13:47:00,,3915.00,2131.00,549.00,265.00,166.00,227.00,88.00,40.00,APPROVED
AZ: TUCSON,01/06/2012 14:47:00,,3896.00,2086.00,539.00,264.00,162.00,218.00,87.00,39.00,APPROVED
AZ: TUCSON,01/06/2012 15:47:00,,3858.00,2093.00,534.00,267.00,165.00,219.00,92.00,39.00,APPROVED
AZ: TUCSON,01/06/2012 16:47:00,,3744.00,2065.00,541.00,274.00,166.00,210.00,106.00,39.00,APPROVED
AZ: TUCSON,01/06/2012 17:48:00,,3426.00,1936.00,525.00,276.00,165.00,200.00,117.00,40.00,APPROVED
AZ: TUCSON,01/06/2012 18:48:00,,3124.00,1789.00,503.00,268.00,166.00,195.00,123.00,40.00,APPROVED
AZ: TUCSON,01/06/2012 19:48:00,,2958.00,1698.00,487.00,259.00,160.00,189.00,125.00,40.00,APPROVED
AZ: TUCSON,01/06/2012 20:48:00,,2811.00,1628.00,471.00,250.00,156.00,180.00,120.00,40.00,APPROVED
AZ: TUCSON,01/06/2012 21:49:00,,2907.00,1649.00,462.00,249.00,155.00,176.00,117.00,37.00,APPROVED
AZ: TUCSON,01/06/2012 22:49:00,,2955.00,1664.00,463.00,247.00,152.00,176.00,117.00,39.00,APPROVED
AZ: TUCSON,01/06/2012 23:49:00,,3031.00,1698.00,470.00,249.00,155.00,181.00,116.00,39.00,APPROVED
AZ: TUCSON,01/07/2012 00:49:00,,3166.00,1770.00,479.00,259.00,156.00,176.00,119.00,38.00,APPROVED
AZ: TUCSON,01/07/2012 01:50:00,,3150.00,1743.00,474.00,251.00,158.00,173.00,119.00,36.00,APPROVED
AZ: TUCSON,01/07/2012 02:50:00,,3304.00,1810.00,483.00,256.00,157.00,177.00,117.00,36.00,APPROVED
AZ: TUCSON,01/07/2012 03:50:00,,3394.00,1850.00,483.00,254.00,160.00,179.00,114.00,36.00,APPROVED
AZ: TUCSON,01/07/2012 04:50:00,,3538.00,1938.00,495.00,260.00,159.00,189.00,114.00,37.00,APPROVED
AZ: TUCSON,01/07/2012 05:51:00,,3683.00,2010.00,512.00,267.00,163.00,189.00,112.00,38.00,APPROVED
AZ: TUCSON,01/07/2012 06:51:00,,3742.00,2027.00,522.00,268.00,165.00,198.00,109.00,37.00,APPROVED
AZ: TUCSON,01/07/2012 07:51:00,,3781.00,2043.00,526.00,263.00,165.00,200.00,104.00,39.00,APPROVED
AZ: TUCSON,01/07/2012 08:51:00,,3833.00,2057.00,530.00,265.00,162.00,207.00,101.00,39.00,APPROVED
AZ: TUCSON,01/07/2012 09:52:00,,3829.00,2040.00,527.00,262.00,162.00,205.00,97.00,38.00,APPROVED
AZ: TUCSON,01/07/2012 10:52:00,,3779.00,2013.00,516.00,254.00,163.00,207.00,94.00,39.00,APPROVED
AZ: TUCSON,01/07/2012 11:52:00,,3775.00,2015.00,519.00,253.00,162.00,206.00,93.00,39.00,APPROVED
AZ: TUCSON,01/07/2012 12:52:00,,3792.00,2044.00,522.00,258.00,162.00,206.00,92.00,39.00,APPROVED
AZ: TUCSON,01/07/2012 13:52:00,,3825.00,2049.00,528.00,259.00,162.00,212.00,91.00,38.00,APPROVED
AZ: TUCSON,01/07/2012 14:53:00,,3863.00,2076.00,543.00,264.00,162.00,216.00,89.00,40.00,APPROVED
AZ: TUCSON,01/07/2012 15:53:00,,3823.00,2061.00,528.00,258.00,164.00,212.00,91.00,39.00,APPROVED
AZ: TUCSON,01/07/2012 16:53:00,,3655.00,1976.00,514.00,258.00,163.00,200.00,96.00,39.00,APPROVED
AZ: TUCSON,01/07/2012 17:53:00,,3338.00,1818.00,495.00,250.00,161.00,189.00,112.00,37.00,APPROVED
AZ: TUCSON,01/07/2012 18:54:00,,3044.00,1703.00,481.00,247.00,153.00,178.00,117.00,39.00,APPROVED
AZ: TUCSON,01/07/2012 19:54:00,,2841.00,1624.00,473.00,248.00,154.00,177.00,119.00,40.00,APPROVED
AZ: TUCSON,01/07/2012 20:54:00,,2753.00,1583.00,466.00,245.00,154.00,181.00,120.00,39.00,APPROVED
AZ: TUCSON,01/07/2012 21:54:00,,2896.00,1651.00,467.00,251.00,157.00,182.00,116.00,38.00,APPROVED
AZ: TUCSON,01/07/2012 22:55:00,,2953.00,1674.00,463.00,242.00,151.00,176.00,119.00,39.00,APPROVED
AZ: TUCSON,01/07/2012 23:55:00,,3056.00,1705.00,469.00,246.00,155.00,176.00,116.00,38.00,APPROVED
AZ: TUCSON,01/08/2012 00:55:00,,3116.00,1722.00,463.00,248.00,150.00,176.00,118.00,38.00,APPROVED
AZ: TUCSON,01/08/2012 01:55:00,,3154.00,1741.00,468.00,245.00,155.00,176.00,114.00,37.00,APPROVED
AZ: TUCSON,01/08/2012 02:56:00,,3321.00,1811.00,481.00,248.00,156.00,178.00,116.00,37.00,APPROVED
AZ: TUCSON,01/08/2012 03:56:00,,3427.00,1850.00,486.00,255.00,160.00,182.00,116.00,36.00,APPROVED
AZ: TUCSON,01/08/2012 04:56:00,,3531.00,1909.00,499.00,253.00,161.00,184.00,114.00,38.00,APPROVED
AZ: TUCSON,01/08/2012 05:56:00,,3581.00,1929.00,497.00,254.00,161.00,185.00,111.00,38.00,APPROVED
AZ: TUCSON,01/08/2012 06:57:00,,3629.00,1948.00,499.00,260.00,159.00,187.00,108.00,38.00,APPROVED
AZ: TUCSON,01/08/2012 07:57:00,,3711.00,1985.00,520.00,263.00,162.00,193.00,107.00,40.00,APPROVED
AZ: TUCSON,01/08/2012 08:57:00,,3761.00,2015.00,517.00,261.00,161.00,196.00,104.00,38.00,APPROVED
AZ: TUCSON,01/08/2012 09:57:00,,3786.00,2036.00,524.00,263.00,162.00,199.00,103.00,39.00,APPROVED
AZ: TUCSON,01/08/2012 10:58:00,,3821.00,2055.00,529.00,260.00,164.00,208.00,95.00,38.00,APPROVED
AZ: TUCSON,01/08/2012 11:58:00,,3815.00,2048.00,523.00,261.00,163.00,205.00,94.00,39.00,APPROVED
AZ: TUCSON,01/08/2012 12:58:00,,3794.00,2038.00,525.00,257.00,159.00,202.00,93.00,38.00,APPROVED
AZ: TUCSON,01/08/2012 13:58:00,,3804.00,2028.00,525.00,257.00,160.00,207.00,89.00,39.00,APPROVED
AZ: TUCSON,01/08/2012 14:59:00,,3791.00,2022.00,519.00,255.00,158.00,206.00,88.00,39.00,APPROVED
AZ: TUCSON,01/08/2012 15:59:00,,3765.00,2014.00,529.00,255.00,160.00,206.00,91.00,38.00,APPROVED
AZ: TUCSON,01/08/2012 16:59:00,,3694.00,1985.00,519.00,258.00,158.00,200.00,97.00,37.00,APPROVED
AZ: TUCSON,01/08/2012 17:59:00,,3500.00,1881.00,502.00,251.00,157.00,196.00,99.00,37.00,APPROVED
AZ: TUCSON,01/08/2012 19:00:00,,3329.00,1821.00,499.00,247.00,156.00,191.00,105.00,40.00,APPROVED
AZ: TUCSON,01/08/2012 20:00:00,,3317.00,1820.00,493.00,251.00,158.00,188.00,108.00,39.00,APPROVED
AZ: TUCSON,01/08/2012 21:00:00,,3380.00,1853.00,495.00,257.00,157.00,189.00,110.00,37.00,APPROVED
AZ: TUCSON,01/08/2012 22:00:00,,3402.00,1844.00,498.00,253.00,157.00,183.00,111.00,39.00,APPROVED
AZ: TUCSON,01/08/2012 23:00:00,,3323.00,1815.00,488.00,251.00,159.00,184.00,109.00,37.00,APPROVED
AZ: TUCSON,01/09/2012 00:01:00,,3380.00,1825.00,493.00,248.00,156.00,183.00,113.00,37.00,APPROVED
AZ: TUCSON,01/09/2012 01:01:00,,3432.00,1842.00,493.00,248.00,155.00,180.00,106.00,37.00,APPROVED
AZ: TUCSON,01/09/2012 02:01:00,,3484.00,1875.00,486.00,245.00,154.00,181.00,104.00,37.00,APPROVED
AZ: TUCSON,01/09/2012 03:01:00,,3519.00,1866.00,488.00,243.00,156.00,180.00,102.00,36.00,APPROVED
AZ: TUCSON,01/09/2012 04:02:00,,3556.00,1872.00,487.00,239.00,152.00,183.00,99.00,37.00,APPROVED
AZ: TUCSON,01/09/2012 05:02:00,,3594.00,1886.00,485.00,242.00,151.00,181.00,98.00,36.00,APPROVED
AZ: TUCSON,01/09/2012 06:02:00,,3640.00,1909.00,489.00,240.00,152.00,189.00,95.00,36.00,APPROVED
AZ: TUCSON,01/09/2012 07:02:00,,3649.00,1921.00,491.00,241.00,153.00,190.00,95.00,37.00,APPROVED
AZ: TUCSON,01/09/2012 08:03:00,,3696.00,1928.00,496.00,242.00,155.00,195.00,88.00,36.00,APPROVED
AZ: TUCSON,01/09/2012 09:03:00,,3766.00,1955.00,503.00,244.00,157.00,200.00,85.00,38.00,APPROVED
AZ: TUCSON,01/09/2012 10:03:00,,3806.00,1973.00,506.00,242.00,154.00,204.00,78.00,37.00,APPROVED
AZ: TUCSON,01/09/2012 11:03:00,,3833.00,1990.00,508.00,242.00,156.00,209.00,76.00,37.00,APPROVED
AZ: TUCSON,01/09/2012 12:04:00,,3844.00,2010.00,519.00,247.00,159.00,215.00,72.00,38.00,APPROVED
AZ: TUCSON,01/09/2012 13:04:00,,3885.00,2027.00,526.00,250.00,159.00,214.00,72.00,39.00,APPROVED
AZ: TUCSON,01/09/2012 14:04:00,,3976.00,2085.00,545.00,253.00,164.00,226.00,75.00,39.00,APPROVED
AZ: TUCSON,01/09/2012 15:11:00,,4018.00,2181.00,573.00,264.00,170.00,237.00,78.00,40.00,APPROVED
AZ: TUCSON,01/09/2012 16:12:00,,3995.00,2241.00,599.00,288.00,176.00,248.00,92.00,42.00,APPROVED
AZ: TUCSON,01/09/2012 17:12:00,,3754.00,2141.00,581.00,290.00,177.00,239.00,102.00,43.00,APPROVED
AZ: TUCSON,01/09/2012 18:12:00,,3419.00,1960.00,552.00,279.00,171.00,222.00,114.00,42.00,APPROVED
AZ: TUCSON,01/09/2012 19:12:00,,3181.00,1847.00,529.00,273.00,168.00,204.00,119.00,42.00,APPROVED
AZ: TUCSON,01/09/2012 20:12:00,,2971.00,1738.00,508.00,262.00,163.00,194.00,121.00,40.00,APPROVED
AZ: TUCSON,01/09/2012 21:13:00,,2873.00,1675.00,493.00,257.00,160.00,188.00,120.00,40.00,APPROVED
AZ: TUCSON,01/09/2012 22:09:00,,2849.00,1645.00,486.00,252.00,160.00,186.00,118.00,40.00,APPROVED
AZ: TUCSON,01/09/2012 23:24:00,,2807.00,1529.00,441.00,223.00,147.00,167.00,109.00,36.00,APPROVED
AZ: TUCSON,01/10/2012 00:24:00,,2906.00,1624.00,456.00,237.00,154.00,176.00,113.00,35.00,APPROVED
AZ: TUCSON,01/10/2012 01:25:00,,3134.00,1731.00,477.00,253.00,154.00,183.00,112.00,36.00,APPROVED
AZ: TUCSON,01/10/2012 02:25:00,,3355.00,1831.00,480.00,254.00,157.00,184.00,112.00,36.00,APPROVED
AZ: TUCSON,01/10/2012 03:25:00,,3483.00,1874.00,494.00,254.00,158.00,188.00,108.00,36.00,APPROVED
AZ: TUCSON,01/10/2012 04:25:00,,3527.00,1891.00,499.00,252.00,162.00,192.00,105.00,36.00,APPROVED
AZ: TUCSON,01/10/2012 05:26:00,,3585.00,1942.00,504.00,259.00,165.00,194.00,105.00,37.00,APPROVED
AZ: TUCSON,01/10/2012 06:26:00,,3673.00,1989.00,515.00,261.00,163.00,200.00,103.00,38.00,APPROVED
AZ: TUCSON,01/10/2012 07:26:00,,3715.00,2007.00,522.00,264.00,169.00,204.00,98.00,38.00,APPROVED
AZ: TUCSON,01/10/2012 08:26:00,,3683.00,1965.00,517.00,258.00,164.00,207.00,94.00,38.00,APPROVED
AZ: TUCSON,01/10/2012 09:27:00,,3704.00,1989.00,523.00,256.00,161.00,204.00,92.00,38.00,APPROVED
AZ: TUCSON,01/10/2012 10:27:00,,3757.00,2011.00,526.00,265.00,160.00,214.00,87.00,38.00,APPROVED
AZ: TUCSON,01/10/2012 11:27:00,,3788.00,2047.00,540.00,259.00,165.00,218.00,89.00,37.00,APPROVED
AZ: TUCSON,01/10/2012 12:27:00,,3803.00,2045.00,540.00,265.00,161.00,220.00,85.00,39.00,APPROVED
AZ: TUCSON,01/10/2012 13:28:00,,3815.00,2066.00,545.00,262.00,166.00,224.00,84.00,40.00,APPROVED
AZ: TUCSON,01/10/2012 14:28:00,,3847.00,2077.00,554.00,265.00,166.00,228.00,82.00,39.00,APPROVED
AZ: TUCSON,01/10/2012 15:28:00,,3870.00,2115.00,562.00,267.00,171.00,229.00,87.00,39.00,APPROVED
AZ: TUCSON,01/10/2012 16:28:00,,3775.00,2095.00,557.00,271.00,170.00,226.00,95.00,40.00,APPROVED
AZ: TUCSON,01/10/2012 17:29:00,,3516.00,1964.00,530.00,270.00,166.00,208.00,105.00,40.00,APPROVED
AZ: TUCSON,01/10/2012 18:29:00,,3242.00,1849.00,516.00,264.00,165.00,200.00,110.00,40.00,APPROVED
AZ: TUCSON,01/10/2012 19:29:00,,3013.00,1737.00,500.00,260.00,160.00,193.00,119.00,40.00,APPROVED
AZ: TUCSON,01/10/2012 20:29:00,,2828.00,1643.00,481.00,250.00,156.00,187.00,119.00,40.00,APPROVED
AZ: TUCSON,01/10/2012 21:30:00,,2763.00,1616.00,474.00,248.00,157.00,182.00,120.00,38.00,APPROVED
AZ: TUCSON,01/10/2012 22:30:00,,3021.00,1721.00,477.00,257.00,158.00,182.00,119.00,39.00,APPROVED
AZ: TUCSON,01/10/2012 23:30:00,,3169.00,1787.00,481.00,258.00,159.00,181.00,119.00,40.00,APPROVED
AZ: TUCSON,01/11/2012 00:30:00,,3217.00,1799.00,480.00,259.00,159.00,181.00,121.00,39.00,APPROVED
AZ: TUCSON,01/11/2012 01:31:00,,3158.00,1763.00,474.00,254.00,153.00,180.00,118.00,39.00,APPROVED
AZ: TUCSON,01/11/2012 02:31:00,,3270.00,1823.00,488.00,260.00,161.00,181.00,116.00,38.00,APPROVED
AZ: TUCSON,01/11/2012 03:31:00,,3426.00,1928.00,509.00,273.00,166.00,193.00,119.00,39.00,APPROVED
AZ: TUCSON,01/11/2012 04:31:00,,3534.00,1970.00,518.00,276.00,167.00,198.00,122.00,38.00,APPROVED
AZ: TUCSON,01/11/2012 05:32:00,,3636.00,2045.00,530.00,285.00,168.00,208.00,116.00,41.00,APPROVED
AZ: TUCSON,01/11/2012 06:32:00,,3750.00,2109.00,552.00,291.00,169.00,215.00,115.00,40.00,APPROVED
AZ: TUCSON,01/11/2012 07:32:00,,3841.00,2159.00,569.00,294.00,179.00,224.00,113.00,41.00,APPROVED
AZ: TUCSON,01/11/2012 08:32:00,,3965.00,2260.00,591.00,305.00,180.00,240.00,108.00,44.00,APPROVED
AZ: TUCSON,01/11/2012 09:33:00,,3996.00,2287.00,601.00,305.00,185.00,242.00,108.00,45.00,APPROVED
AZ: TUCSON,01/11/2012 10:33:00,,4025.00,2306.00,616.00,307.00,183.00,247.00,103.00,46.00,APPROVED
AZ: TUCSON,01/11/2012 11:33:00,,4096.00,2350.00,623.00,306.00,183.00,252.00,105.00,44.00,APPROVED
AZ: TUCSON,01/11/2012 12:33:00,,4129.00,2374.00,632.00,305.00,183.00,254.00,101.00,44.00,APPROVED
AZ: TUCSON,01/11/2012 13:33:00,,4138.00,2380.00,635.00,306.00,186.00,254.00,102.00,46.00,APPROVED
AZ: TUCSON,01/11/2012 14:34:00,,4158.00,2394.00,639.00,307.00,186.00,259.00,101.00,45.00,APPROVED
AZ: TUCSON,01/11/2012 15:34:00,,4160.00,2370.00,635.00,300.00,182.00,258.00,101.00,46.00,APPROVED
AZ: TUCSON,01/11/2012 16:34:00,,4075.00,2368.00,631.00,313.00,187.00,260.00,108.00,45.00,APPROVED
AZ: TUCSON,01/11/2012 17:34:00,,3831.00,2244.00,607.00,312.00,186.00,242.00,112.00,47.00,APPROVED
AZ: TUCSON,01/11/2012 18:35:00,,3616.00,2103.00,574.00,291.00,176.00,224.00,117.00,44.00,APPROVED